DLH5YU EDDN-EDDF

Flight info

Callsign DLH5YU
Flight time 0h 25m
Altitude 20000
Route SUKAD1G SUKAD DCT PIWAW T159 SPESA SPESA5B
Aircraft A320/M-SDE3FGHIRWY/LB1

Departure

Time 2026-05-03 20:29
Airport Nuremberg Airport (EDDN)

Arrival

Time 2026-05-03 20:54
Airport Frankfurt Main Airport (EDDF)
Time Latitude Longitude Altitude Speed Heading
2026-05-03 20:15 49.49524 11.07724 1026 ft 0 kts 188°
2026-05-03 20:23 49.49539 11.07728 1024 ft 4 kts 188°
2026-05-03 20:23 49.49561 11.07734 1026 ft 4 kts 183°
2026-05-03 20:24 49.49584 11.07726 1025 ft 4 kts 127°
2026-05-03 20:24 49.49592 11.07697 1026 ft 0 kts 98°
2026-05-03 20:27 49.49590 11.07725 1027 ft 7 kts 98°
2026-05-03 20:27 49.49583 11.07797 1026 ft 9 kts 98°
2026-05-03 20:27 49.49571 11.07922 1026 ft 12 kts 99°
2026-05-03 20:27 49.49555 11.08080 1026 ft 16 kts 99°
2026-05-03 20:28 49.49537 11.08255 1028 ft 17 kts 99°
2026-05-03 20:28 49.49593 11.08361 1032 ft 14 kts 20°
2026-05-03 20:28 49.49677 11.08518 1035 ft 23 kts 55°
2026-05-03 20:28 49.49796 11.08518 1037 ft 20 kts 298°
2026-05-03 20:29 49.49828 11.08249 1033 ft 45 kts 279°
2026-05-03 20:29 49.49922 11.07267 1024 ft 134 kts 278°
2026-05-03 20:29 49.50087 11.05611 1452 ft 165 kts 279°
2026-05-03 20:29 49.50246 11.03827 2367 ft 170 kts 280°
2026-05-03 20:30 49.50386 11.02082 3111 ft 170 kts 280°
2026-05-03 20:30 49.50560 11.00136 3514 ft 192 kts 281°
2026-05-03 20:30 49.50773 10.98036 4005 ft 210 kts 281°
2026-05-03 20:30 49.51029 10.95710 4598 ft 225 kts 281°
2026-05-03 20:31 49.51291 10.93300 5250 ft 237 kts 280°
2026-05-03 20:31 49.51569 10.90682 5885 ft 254 kts 278°
2026-05-03 20:31 49.51839 10.87912 6565 ft 268 kts 277°
2026-05-03 20:31 49.52101 10.85091 7796 ft 272 kts 275°
2026-05-03 20:32 49.52375 10.82148 9161 ft 275 kts 274°
2026-05-03 20:32 49.52652 10.79207 10375 ft 284 kts 274°
2026-05-03 20:32 49.52937 10.76106 10993 ft 310 kts 274°
2026-05-03 20:32 49.53254 10.72685 11543 ft 335 kts 274°
2026-05-03 20:33 49.53598 10.69008 12067 ft 357 kts 275°
2026-05-03 20:33 49.53960 10.65185 12930 ft 366 kts 275°
2026-05-03 20:33 49.54335 10.61255 13911 ft 373 kts 275°
2026-05-03 20:33 49.54738 10.57279 14806 ft 379 kts 278°
2026-05-03 20:34 49.55495 10.53376 15447 ft 386 kts 289°
2026-05-03 20:34 49.56756 10.49688 16071 ft 392 kts 301°
2026-05-03 20:34 49.58349 10.46261 16702 ft 395 kts 303°
2026-05-03 20:34 49.59964 10.42812 17317 ft 398 kts 303°
2026-05-03 20:35 49.61577 10.39345 17927 ft 400 kts 303°
2026-05-03 20:35 49.63183 10.35810 18490 ft 402 kts 299°
2026-05-03 20:35 49.64584 10.32078 18964 ft 404 kts 297°
2026-05-03 20:35 49.65953 10.28278 19456 ft 407 kts 296°
2026-05-03 20:36 49.67310 10.24429 19864 ft 410 kts 295°
2026-05-03 20:36 49.68664 10.20556 19974 ft 414 kts 295°
2026-05-03 20:36 49.70052 10.16573 19994 ft 428 kts 295°
2026-05-03 20:36 49.71490 10.12447 19828 ft 440 kts 296°
2026-05-03 20:37 49.72939 10.08300 19457 ft 439 kts 296°
2026-05-03 20:37 49.74352 10.04274 18967 ft 438 kts 296°
2026-05-03 20:37 49.75809 10.00132 18128 ft 437 kts 296°
2026-05-03 20:37 49.77255 9.96024 17296 ft 433 kts 296°
2026-05-03 20:38 49.78685 9.91954 16566 ft 428 kts 296°
2026-05-03 20:38 49.80096 9.87926 15843 ft 423 kts 295°
2026-05-03 20:38 49.81489 9.83940 15138 ft 418 kts 295°
2026-05-03 20:38 49.82859 9.80005 14463 ft 413 kts 295°
2026-05-03 20:39 49.84212 9.76112 13809 ft 409 kts 295°
2026-05-03 20:39 49.85551 9.72256 13100 ft 403 kts 294°
2026-05-03 20:39 49.86869 9.68454 12490 ft 398 kts 294°
2026-05-03 20:39 49.88145 9.64675 11938 ft 392 kts 290°
2026-05-03 20:40 49.88902 9.60664 11687 ft 384 kts 274°
2026-05-03 20:40 49.89128 9.56561 11442 ft 383 kts 272°
2026-05-03 20:40 49.89293 9.52526 11185 ft 364 kts 263°
2026-05-03 20:40 49.88813 9.48787 10941 ft 345 kts 251°
2026-05-03 20:41 49.88163 9.45280 10699 ft 332 kts 251°
2026-05-03 20:41 49.87538 9.41900 10462 ft 320 kts 251°
2026-05-03 20:41 49.86961 9.38634 10213 ft 310 kts 254°
2026-05-03 20:41 49.86708 9.35354 9973 ft 305 kts 265°
2026-05-03 20:42 49.87120 9.32142 9695 ft 308 kts 289°
2026-05-03 20:42 49.88386 9.29441 9409 ft 315 kts 313°
2026-05-03 20:42 49.90291 9.27751 9111 ft 321 kts 338°
2026-05-03 20:42 49.92450 9.26917 8820 ft 318 kts 343°
2026-05-03 20:43 49.94596 9.26220 8542 ft 311 kts 344°
2026-05-03 20:43 49.96700 9.25557 8263 ft 306 kts 344°
2026-05-03 20:43 49.98769 9.24910 7960 ft 300 kts 344°
2026-05-03 20:43 50.00791 9.24285 7660 ft 295 kts 344°
2026-05-03 20:44 50.02793 9.23671 7365 ft 290 kts 343°
2026-05-03 20:44 50.04757 9.23068 7065 ft 284 kts 344°
2026-05-03 20:44 50.06669 9.22502 6771 ft 274 kts 344°
2026-05-03 20:44 50.08493 9.21890 6471 ft 260 kts 333°
2026-05-03 20:45 50.09999 9.20528 6187 ft 247 kts 316°
2026-05-03 20:45 50.11343 9.18915 5881 ft 240 kts 314°
2026-05-03 20:45 50.12631 9.17328 5570 ft 230 kts 310°
2026-05-03 20:45 50.13520 9.15433 5269 ft 209 kts 288°
2026-05-03 20:46 50.14088 9.13397 4968 ft 203 kts 284°
2026-05-03 20:46 50.14602 9.11361 4674 ft 201 kts 284°
2026-05-03 20:46 50.15100 9.09345 4364 ft 197 kts 282°
2026-05-03 20:46 50.15304 9.07309 4072 ft 188 kts 261°
2026-05-03 20:47 50.15036 9.05445 3981 ft 183 kts 249°
2026-05-03 20:47 50.14602 9.03538 3980 ft 186 kts 248°
2026-05-03 20:47 50.14157 9.01635 3981 ft 187 kts 248°
2026-05-03 20:47 50.13710 8.99728 3984 ft 187 kts 248°
2026-05-03 20:48 50.13263 8.97820 3982 ft 188 kts 248°
2026-05-03 20:48 50.12819 8.95920 3984 ft 186 kts 248°
2026-05-03 20:48 50.12374 8.94018 3985 ft 187 kts 249°
2026-05-03 20:48 50.12080 8.92760 3991 ft 188 kts 249°
2026-05-03 20:49 50.11483 8.90221 3991 ft 188 kts 248°
2026-05-03 20:49 50.11185 8.88954 3988 ft 180 kts 248°
2026-05-03 20:49 50.10638 8.86627 3993 ft 168 kts 248°
2026-05-03 20:49 50.10237 8.84924 3995 ft 167 kts 249°
2026-05-03 20:50 50.09973 8.83803 4015 ft 166 kts 249°
2026-05-03 20:50 50.09565 8.82106 3776 ft 169 kts 248°
2026-05-03 20:50 50.09146 8.80348 3383 ft 171 kts 249°
2026-05-03 20:50 50.08736 8.78618 3093 ft 169 kts 250°
2026-05-03 20:51 50.08334 8.76915 2860 ft 168 kts 250°
2026-05-03 20:51 50.07931 8.75212 2631 ft 167 kts 249°
2026-05-03 20:51 50.07531 8.73511 2422 ft 169 kts 251°
2026-05-03 20:51 50.07256 8.71778 2130 ft 160 kts 259°
2026-05-03 20:52 50.07085 8.70126 1896 ft 146 kts 258°
2026-05-03 20:52 50.06870 8.68643 1685 ft 136 kts 253°
2026-05-03 20:52 50.06564 8.67267 1519 ft 133 kts 249°
2026-05-03 20:52 50.06247 8.65932 1383 ft 131 kts 248°
2026-05-03 20:53 50.05932 8.64590 1176 ft 131 kts 249°
2026-05-03 20:53 50.05621 8.63263 1015 ft 132 kts 248°
2026-05-03 20:53 50.05277 8.61928 869 ft 133 kts 248°
2026-05-03 20:53 50.04974 8.60566 667 ft 132 kts 249°
2026-05-03 20:54 50.04650 8.59261 481 ft 130 kts 248°
2026-05-03 20:54 50.04068 8.56825 361 ft 88 kts 249°
2026-05-03 20:54 50.03913 8.56172 352 ft 38 kts 251°
2026-05-03 20:55 50.03890 8.55829 350 ft 24 kts 278°
2026-05-03 20:55 50.03902 8.55704 348 ft 0 kts 281°
2026-05-03 20:55 50.03904 8.55691 348 ft 5 kts 283°
2026-05-03 20:55 50.03910 8.55652 354 ft 3 kts 283°
2026-05-03 20:56 50.03921 8.55563 349 ft 13 kts 279°
2026-05-03 20:56 50.03924 8.55422 349 ft 13 kts 256°
2026-05-03 20:56 50.03915 8.55383 352 ft 6 kts 250°
2026-05-03 20:56 50.03892 8.55288 357 ft 11 kts 249°
2026-05-03 20:57 50.03863 8.55170 354 ft 12 kts 249°
2026-05-03 20:57 50.03849 8.55059 349 ft 11 kts 292°
2026-05-03 20:57 50.03905 8.55007 356 ft 8 kts 340°
2026-05-03 20:57 50.03965 8.54976 360 ft 15 kts 343°
2026-05-03 20:58 50.04039 8.55109 357 ft 18 kts 69°
2026-05-03 20:58 50.04087 8.55306 360 ft 21 kts 69°
2026-05-03 20:58 50.04135 8.55510 354 ft 20 kts 70°
2026-05-03 20:58 50.04184 8.55715 361 ft 21 kts 71°
2026-05-03 20:59 50.04235 8.55922 357 ft 16 kts 64°
2026-05-03 20:59 50.04336 8.55936 359 ft 20 kts 335°
2026-05-03 20:59 50.04428 8.56014 360 ft 17 kts 69°
2026-05-03 20:59 50.04467 8.56177 361 ft 15 kts 69°
2026-05-03 21:00 50.04503 8.56326 363 ft 14 kts 69°
2026-05-03 21:00 50.04520 8.56401 359 ft 6 kts 70°
2026-05-03 21:00 50.04535 8.56488 357 ft 9 kts 99°
2026-05-03 21:00 50.04506 8.56526 359 ft 3 kts 162°
2026-05-03 21:01 50.04490 8.56533 356 ft 2 kts 164°
2026-05-03 21:01 50.04482 8.56537 358 ft 1 kts 164°
2026-05-03 21:01 50.04480 8.56537 358 ft 0 kts 164°